CW9561 Weather Reports


time (UTC)temp
C
wind
direction
speed
KPH
gust
KPH
rain 1hr
cm
rain 24hr
cm
rain mn
cm
humidity
%
barometer
mb
20260506041037 0 79 0.0 0.0 0.00 0.00 0.51 93 1011.2
20260506040033 0 79 0.0 0.0 0.00 0.00 0.51 93 1011.2
20260506035028 0 79 0.0 0.0 0.00 0.00 0.51 93 1011.0
20260506034028 0 79 0.0 0.0 0.00 0.00 0.51 93 1011.6
20260506033021 0 79 0.0 0.0 0.00 0.00 0.51 93 1011.7
20260506032037 0 79 0.0 0.0 0.00 0.00 0.51 93 1011.6
20260506031030 0 79 0.0 0.0 0.00 0.00 0.51 93 1011.6
20260506030023 0 79 0.0 0.0 0.00 0.00 0.51 93 1011.3
20260506025042 0 79 0.0 0.0 0.00 0.00 0.51 94 1011.1
20260506023028 1 79 0.0 0.0 0.00 0.00 0.51 94 1011.0
20260506022042 1 79 0.0 0.0 0.00 0.00 0.51 94 1010.9
20260506015031 1 83 0.0 0.0 0.00 0.00 0.51 94 1010.5
20260506014030 1 143 0.0 0.0 0.00 0.00 0.51 94 1010.3
20260506013027 1 143 0.0 0.0 0.00 0.00 0.51 94 1010.2
20260506012041 1 143 0.0 0.0 0.00 0.00 0.51 94 1009.9
20260506011018 1 142 0.0 0.0 0.00 0.00 0.51 94 1009.7
20260506005032 1 142 0.0 0.0 0.00 0.00 0.51 93 1009.5
20260506004023 0 143 0.0 0.0 0.00 0.00 0.51 93 1009.5
20260506003036 0 143 0.0 0.0 0.00 0.00 0.51 92 1010.1
20260506002033 1 143 1.6 0.0 0.00 0.00 0.51 92 1010.1
20260506001027 1 150 1.6 0.0 0.00 0.00 0.51 90 1010.0
20260506000040 1 350 0.0 0.0 0.00 0.00 0.51 91 1009.8
20260505235036 1 344 3.2 0.0 0.00 0.00 0.51 92 1009.7
20260505234036 1 283 1.6 0.0 0.00 0.00 0.51 93 1009.8
20260505233035 1 242 0.0 0.0 0.00 0.00 0.51 94 1009.9
20260505232034 1 157 0.0 0.0 0.00 0.00 0.48 94 1010.0
20260505231028 0 157 0.0 0.0 0.00 0.00 0.46 93 1010.1
20260505230029 0 157 0.0 0.0 0.00 0.00 0.43 93 1010.1
20260505225026 1 157 0.0 0.0 0.00 0.00 0.43 93 1010.0
20260505224023 1 157 0.0 0.0 0.00 0.00 0.43 92 1010.1
20260505223023 1 157 0.0 0.0 0.00 0.00 0.43 92 1010.1
20260505222035 2 157 0.0 0.0 0.00 0.00 0.43 92 1009.7
20260505221030 2 22 3.2 0.0 0.00 0.00 0.43 92 1009.9
20260505220033 2 71 3.2 0.0 0.00 0.00 0.43 92 1009.5
20260505214026 1 160 0.0 0.0 0.00 0.00 0.43 92 1009.4
20260505213041 1 161 0.0 0.0 0.00 0.00 0.41 92 1009.6
20260505212035 1 161 0.0 0.0 0.00 0.00 0.38 91 1009.9
20260505211033 1 337 0.0 0.0 0.00 0.00 0.36 91 1009.3
20260505210029 2 337 1.6 0.0 0.00 0.00 0.30 89 1009.7
20260505205022 2 296 4.8 0.0 0.00 0.00 0.28 88 1009.4
20260505204039 3 349 3.2 0.0 0.00 0.00 0.23 84 1009.5
20260505203033 4 265 1.6 0.0 0.00 0.00 0.20 86 1008.8
20260505202033 4 266 0.0 0.0 0.00 0.00 0.20 86 1008.5
20260505201026 4 266 0.0 0.0 0.00 0.00 0.20 88 1008.8
20260505200040 4 229 1.6 0.0 0.00 0.00 0.20 90 1008.7
20260505194030 3 98 6.4 0.0 0.00 0.00 0.20 91 1008.6
20260505193033 3 114 3.2 0.0 0.00 0.00 0.20 92 1008.8
20260505192033 3 119 1.6 0.0 0.00 0.00 0.20 91 1009.0
20260505190032 3 103 6.4 0.0 0.00 0.00 0.20 92 1009.0
20260505185031 3 69 6.4 0.0 0.00 0.00 0.20 92 1009.1
20260505184025 3 96 3.2 0.0 0.00 0.00 0.20 91 1009.2
20260505183028 3 51 3.2 0.0 0.00 0.00 0.20 91 1009.2
20260505182028 3 271 0.0 0.0 0.00 0.00 0.20 93 1009.3
20260505181022 2 284 1.6 0.0 0.00 0.00 0.20 93 1009.3
20260505180021 2 179 0.0 0.0 0.00 0.00 0.20 93 1010.3
20260505173037 3 337 0.0 0.0 0.00 0.00 0.15 91 1010.0
20260505172033 3 90 0.0 0.0 0.00 0.00 0.13 92 1010.0
20260505171032 3 90 0.0 0.0 0.00 0.00 0.13 91 1009.7
20260505170027 3 90 3.2 0.0 0.00 0.00 0.13 91 1009.8
20260505164038 3 95 1.6 0.0 0.00 0.00 0.13 91 1010.1
20260505163033 3 113 0.0 0.0 0.00 0.00 0.13 91 1010.1
20260505162032 3 95 1.6 0.0 0.00 0.00 0.13 91 1010.2
20260505161025 3 59 1.6 0.0 0.00 0.00 0.10 91 1010.4
20260505153025 2 169 0.0 0.0 0.00 0.00 0.10 92 1010.6
20260505152019 2 231 0.0 0.0 0.00 0.00 0.10 91 1010.4
20260505125024 2 252 0.0 0.0 0.00 0.00 0.05 95 1011.0
20260505124039 1 252 0.0 0.0 0.00 0.00 0.05 94 1011.0
20260505123031 1 252 0.0 0.0 0.00 0.00 0.05 94 1011.0
20260505122020 1 252 0.0 0.0 0.00 0.00 0.05 94 1011.3
20260505121021 1 252 0.0 0.0 0.00 0.00 0.05 94 1011.2
20260505120038 1 252 0.0 0.0 0.00 0.00 0.05 94 1011.3
20260505115030 1 252 0.0 0.0 0.00 0.00 0.05 94 1011.3
20260505112034 2 252 0.0 0.0 0.00 0.00 0.05 94 1011.3
20260505111032 2 252 0.0 0.0 0.00 0.00 0.05 94 1011.5
20260505102025 2 252 0.0 0.0 0.00 0.00 0.05 93 1011.1
20260505100029 2 252 0.0 0.0 0.00 0.00 0.05 93 1011.5
20260505094024 2 126 0.0 0.0 0.00 0.00 0.05 93 1011.5
20260505093040 2 126 0.0 0.0 0.00 0.00 0.05 93 1011.7
20260505092032 2 126 0.0 0.0 0.00 0.00 0.05 93 1011.7
20260505091031 2 161 0.0 0.0 0.00 0.00 0.05 93 1011.7
20260505090025 2 240 0.0 0.0 0.00 0.00 0.03 93 1012.0
20260505085022 2 240 0.0 0.0 0.00 0.00 0.03 94 1012.1
20260505084034 2 240 0.0 0.0 0.00 0.00 0.03 94 1012.3
20260505083026 2 240 0.0 0.0 0.00 0.00 0.03 94 1012.3
20260505082030 2 240 0.0 0.0 0.00 0.00 0.03 94 1012.7
20260505080022 2 240 0.0 0.0 0.00 0.00 0.03 94 1012.6
20260505075036 2 240 0.0 0.0 0.00 0.00 0.03 94 1012.6
20260505074028 2 240 0.0 0.0 0.00 0.00 0.03 94 1012.5
20260505073026 2 240 0.0 0.0 0.00 0.00 0.03 94 1012.4
20260505072038 2 240 0.0 0.0 0.00 0.00 0.03 95 1013.2
20260505071031 2 240 0.0 0.0 0.00 0.00 0.03 95 1013.3
20260505070022 2 240 0.0 0.0 0.00 0.00 0.03 95 1013.2
20260505065038 2 240 0.0 0.0 0.00 0.00 0.03 95 1013.4
20260505063031 2 240 0.0 0.0 0.00 0.00 0.00 95 1013.2
20260505062022 2 240 0.0 0.0 0.00 0.00 0.00 95 1013.3
20260505061035 2 240 0.0 0.0 0.00 0.00 0.00 95 1013.2
20260505060029 2 240 0.0 0.0 0.00 0.00 0.00 94 1013.0
20260505055030 2 240 0.0 0.0 0.00 0.00 0.58 94 1013.2
20260505054024 2 240 0.0 0.0 0.00 0.00 0.58 95 1013.3
20260505053036 2 240 0.0 0.0 0.00 0.00 0.58 94 1013.5
20260505052029 1 240 0.0 0.0 0.00 0.00 0.58 94 1013.6
20260505051021 1 240 0.0 0.0 0.00 0.00 0.58 94 1013.7